| time (UTC) | temp F | wind direction | speed MPH | gust MPH | rain 1hr in | rain 24hr in | rain mn in | humidity % | barometer mb |
| 20260903042403 | 76 | 141 | 1.0 | 2.0 | 0.01 | 0.01 | 0.01 | 99 | 1010.9 |
| 20260903041201 | 77 | 153 | 1.0 | 2.0 | 0.01 | 0.01 | 0.01 | 99 | 1010.9 |
| 20260903040001 | 77 | 89 | 1.0 | 2.0 | 0.01 | 0.01 | 0.01 | 99 | 1011.1 |
| 20260903034803 | 77 | 111 | 1.0 | 2.0 | 0.01 | 0.01 | 0.01 | 99 | 1011.1 |
| 20260903033603 | 79 | 101 | 2.0 | 3.0 | 0.00 | 0.00 | 0.00 | 97 | 1011.4 |
| 20260903032403 | 80 | 46 | 0.0 | 1.0 | 0.00 | 0.00 | 0.00 | 93 | 1011.0 |
| 20260903031202 | 80 | 46 | 0.0 | 0.0 | 0.00 | 0.00 | 0.00 | 92 | 1011.1 |
| 20260903030002 | 79 | 46 | 0.0 | 1.0 | 0.00 | 0.00 | 0.00 | 93 | 1011.1 |
| 20260903024802 | 80 | 64 | 1.0 | 2.0 | 0.00 | 0.00 | 0.00 | 92 | 1010.9 |
| 20260903023603 | 80 | 100 | 0.0 | 3.0 | 0.00 | 0.00 | 0.00 | 93 | 1010.6 |
| 20260903022402 | 80 | 33 | 2.0 | 5.0 | 0.00 | 0.00 | 0.00 | 90 | 1010.6 |
| 20260903021202 | 80 | 35 | 3.0 | 5.0 | 0.00 | 0.00 | 0.00 | 91 | 1010.7 |
| 20260903020001 | 80 | 44 | 0.0 | 3.0 | 0.00 | 0.00 | 0.00 | 91 | 1010.7 |
| 20260903014803 | 80 | 26 | 1.0 | 1.0 | 0.00 | 0.00 | 0.00 | 91 | 1011.2 |
| 20260903013602 | 80 | 11 | 1.0 | 2.0 | 0.00 | 0.00 | 0.00 | 91 | 1010.9 |
| 20260903012402 | 79 | 27 | 1.0 | 2.0 | 0.00 | 0.00 | 0.00 | 92 | 1011.0 |
| 20260903011202 | 79 | 46 | 1.0 | 2.0 | 0.00 | 0.00 | 0.00 | 93 | 1011.1 |
| 20260903010002 | 78 | 337 | 2.0 | 3.0 | 0.00 | 0.00 | 0.00 | 95 | 1011.3 |
| 20260903004802 | 78 | 284 | 1.0 | 2.0 | 0.00 | 0.00 | 0.00 | 95 | 1011.5 |
| 20260903003602 | 77 | 342 | 0.0 | 0.0 | 0.00 | 0.00 | 0.00 | 97 | 1011.2 |
| 20260903002404 | 78 | 88 | 1.0 | 3.0 | 0.00 | 0.00 | 0.00 | 97 | 1010.7 |
| 20260903001203 | 77 | 351 | 0.0 | 0.0 | 0.00 | 0.00 | 0.00 | 97 | 1011.2 |
| 20260903000004 | 77 | 14 | 0.0 | 0.0 | 0.00 | 0.00 | 0.00 | 97 | 1011.3 |
| 20260902234805 | 76 | 77 | 0.0 | 1.0 | 0.00 | 0.00 | 0.00 | 98 | 1011.3 |
| 20260902233603 | 76 | 40 | 0.0 | 1.0 | 0.00 | 0.00 | 0.00 | 98 | 1011.5 |
| 20260902232403 | 76 | 38 | 1.0 | 2.0 | 0.00 | 0.00 | 0.00 | 99 | 1011.4 |
| 20260902231203 | 76 | 22 | 0.0 | 0.0 | 0.00 | 0.00 | 0.00 | 99 | 1011.3 |
| 20260902230004 | 76 | 32 | 1.0 | 1.0 | 0.00 | 0.00 | 0.00 | 99 | 1011.4 |
| 20260902224804 | 75 | 17 | 0.0 | 0.0 | 0.00 | 0.00 | 0.00 | 99 | 1011.3 |
| 20260902223604 | 74 | 7 | 0.0 | 0.0 | 0.00 | 0.00 | 0.00 | 99 | 1011.0 |
| 20260902222403 | 74 | 330 | 1.0 | 2.0 | 0.00 | 0.00 | 0.00 | 99 | 1011.0 |
| 20260902221204 | 74 | 246 | 1.0 | 2.0 | 0.00 | 0.00 | 0.00 | 99 | 1010.9 |
| 20260902220004 | 74 | 299 | 1.0 | 2.0 | 0.00 | 0.00 | 0.00 | 99 | 1010.9 |
| 20260902214803 | 74 | 304 | 0.0 | 0.0 | 0.00 | 0.00 | 0.00 | 99 | 1010.8 |
| 20260902213604 | 73 | 294 | 0.0 | 0.0 | 0.00 | 0.00 | 0.00 | 99 | 1010.8 |
| 20260902212403 | 73 | 266 | 0.0 | 0.0 | 0.00 | 0.00 | 0.00 | 99 | 1011.1 |
| 20260902211203 | 73 | 271 | 0.0 | 0.0 | 0.00 | 0.00 | 0.00 | 99 | 1011.1 |
| 20260902210004 | 73 | 272 | 0.0 | 0.0 | 0.00 | 0.00 | 0.00 | 99 | 1011.3 |
| 20260902204804 | 73 | 9 | 0.0 | 0.0 | 0.00 | 0.00 | 0.00 | 99 | 1011.1 |
| 20260902203602 | 73 | 307 | 2.0 | 2.0 | 0.00 | 0.00 | 0.00 | 99 | 1011.2 |
| 20260902202403 | 73 | 220 | 2.0 | 2.0 | 0.00 | 0.00 | 0.00 | 99 | 1011.2 |
| 20260902201203 | 73 | 311 | 1.0 | 2.0 | 0.00 | 0.00 | 0.00 | 99 | 1011.0 |
| 20260902200004 | 73 | 342 | 0.0 | 0.0 | 0.00 | 0.00 | 0.00 | 99 | 1011.0 |
| 20260902194802 | 73 | 342 | 0.0 | 0.0 | 0.00 | 0.00 | 0.00 | 99 | 1011.1 |
| 20260902193602 | 73 | 346 | 1.0 | 2.0 | 0.00 | 0.00 | 0.00 | 99 | 1011.7 |
| 20260902192404 | 73 | 288 | 0.0 | 0.0 | 0.00 | 0.00 | 0.00 | 99 | 1011.8 |
| 20260902191203 | 73 | 250 | 0.0 | 0.0 | 0.00 | 0.00 | 0.00 | 99 | 1012.0 |
| 20260902190003 | 74 | 296 | 1.0 | 2.0 | 0.00 | 0.00 | 0.00 | 99 | 1011.8 |
| 20260902184803 | 73 | 246 | 0.0 | 0.0 | 0.00 | 0.00 | 0.00 | 99 | 1011.9 |
| 20260902183602 | 74 | 295 | 1.0 | 2.0 | 0.00 | 0.00 | 0.00 | 99 | 1012.0 |
| 20260902182402 | 74 | 253 | 1.0 | 2.0 | 0.00 | 0.00 | 0.00 | 99 | 1011.9 |
| 20260902181203 | 74 | 343 | 0.0 | 0.0 | 0.00 | 0.00 | 0.00 | 99 | 1012.0 |
| 20260902180004 | 74 | 343 | 0.0 | 0.0 | 0.00 | 0.00 | 0.00 | 99 | 1012.0 |
| 20260902174802 | 74 | 343 | 0.0 | 0.0 | 0.00 | 0.00 | 0.00 | 99 | 1012.2 |
| 20260902173602 | 74 | 263 | 0.0 | 0.0 | 0.00 | 0.00 | 0.00 | 99 | 1012.0 |
| 20260902172403 | 74 | 263 | 0.0 | 1.0 | 0.00 | 0.00 | 0.00 | 99 | 1012.4 |
| 20260902171201 | 74 | 262 | 0.0 | 0.0 | 0.00 | 0.00 | 0.00 | 99 | 1012.6 |
| 20260902170004 | 74 | 262 | 1.0 | 2.0 | 0.00 | 0.00 | 0.00 | 99 | 1013.0 |
| 20260902164803 | 74 | 267 | 0.0 | 0.0 | 0.00 | 0.00 | 0.00 | 99 | 1012.9 |
| 20260902163603 | 74 | 267 | 0.0 | 0.0 | 0.00 | 0.00 | 0.00 | 99 | 1012.8 |
| 20260902162403 | 74 | 267 | 0.0 | 0.0 | 0.00 | 0.00 | 0.00 | 99 | 1012.9 |
| 20260902161203 | 74 | 267 | 1.0 | 1.0 | 0.00 | 0.00 | 0.00 | 99 | 1012.8 |
| 20260902160005 | 74 | 296 | 1.0 | 2.0 | 0.00 | 0.00 | 0.00 | 99 | 1012.7 |
| 20260902154802 | 74 | 237 | 2.0 | 2.0 | 0.00 | 0.00 | 0.00 | 99 | 1012.5 |
| 20260902153602 | 74 | 201 | 2.0 | 3.0 | 0.00 | 0.00 | 0.00 | 99 | 1012.6 |
| 20260902152404 | 74 | 329 | 0.0 | 0.0 | 0.00 | 0.00 | 0.00 | 99 | 1012.8 |
| 20260902151203 | 75 | 111 | 1.0 | 1.0 | 0.00 | 0.00 | 0.00 | 99 | 1012.7 |
| 20260902150003 | 75 | 158 | 0.0 | 1.0 | 0.00 | 0.00 | 0.00 | 99 | 1013.0 |
| 20260902144802 | 75 | 217 | 1.0 | 2.0 | 0.00 | 0.00 | 0.00 | 99 | 1012.9 |
| 20260902143603 | 75 | 234 | 0.0 | 0.0 | 0.00 | 0.00 | 0.00 | 99 | 1013.3 |
| 20260902142405 | 75 | 224 | 0.0 | 1.0 | 0.00 | 0.00 | 0.00 | 99 | 1013.3 |
| 20260902141202 | 75 | 229 | 0.0 | 0.0 | 0.00 | 0.00 | 0.00 | 99 | 1013.5 |
| 20260902140004 | 75 | 246 | 0.0 | 0.0 | 0.00 | 0.00 | 0.00 | 99 | 1013.3 |
| 20260902134803 | 75 | 215 | 1.0 | 2.0 | 0.00 | 0.00 | 0.00 | 99 | 1013.5 |
| 20260902133602 | 75 | 324 | 1.0 | 1.0 | 0.00 | 0.00 | 0.00 | 99 | 1013.4 |
| 20260902132403 | 76 | 209 | 0.0 | 0.0 | 0.00 | 0.00 | 0.00 | 99 | 1013.4 |
| 20260902131201 | 76 | 210 | 1.0 | 2.0 | 0.00 | 0.00 | 0.00 | 99 | 1013.6 |
| 20260902130003 | 76 | 176 | 1.0 | 2.0 | 0.00 | 0.00 | 0.00 | 99 | 1013.3 |
| 20260902124802 | 76 | 324 | 2.0 | 3.0 | 0.00 | 0.00 | 0.00 | 99 | 1013.4 |
| 20260902123602 | 76 | 208 | 0.0 | 0.0 | 0.00 | 0.00 | 0.00 | 99 | 1013.6 |
| 20260902122402 | 76 | 223 | 2.0 | 2.0 | 0.00 | 0.00 | 0.00 | 99 | 1013.7 |
| 20260902121204 | 76 | 289 | 1.0 | 2.0 | 0.00 | 0.00 | 0.00 | 99 | 1013.6 |
| 20260902120002 | 76 | 284 | 0.0 | 1.0 | 0.00 | 0.00 | 0.00 | 99 | 1013.9 |
| 20260902114803 | 77 | 190 | 1.0 | 2.0 | 0.00 | 0.00 | 0.00 | 99 | 1013.7 |
| 20260902113603 | 77 | 217 | 1.0 | 2.0 | 0.00 | 0.00 | 0.00 | 99 | 1013.8 |
| 20260902112402 | 77 | 262 | 1.0 | 2.0 | 0.00 | 0.00 | 0.00 | 99 | 1013.7 |
| 20260902111204 | 77 | 239 | 2.0 | 2.0 | 0.00 | 0.00 | 0.00 | 98 | 1013.9 |
| 20260902110007 | 78 | 241 | 2.0 | 3.0 | 0.00 | 0.00 | 0.00 | 98 | 1013.6 |
| 20260902104802 | 78 | 206 | 0.0 | 1.0 | 0.00 | 0.00 | 0.00 | 98 | 1013.7 |
| 20260902103604 | 78 | 306 | 2.0 | 2.0 | 0.00 | 0.00 | 0.00 | 97 | 1013.8 |
| 20260902102402 | 78 | 200 | 0.0 | 1.0 | 0.00 | 0.00 | 0.00 | 97 | 1013.6 |
| 20260902101203 | 78 | 217 | 1.0 | 1.0 | 0.00 | 0.00 | 0.00 | 96 | 1013.2 |
| 20260902100002 | 79 | 300 | 1.0 | 1.0 | 0.00 | 0.00 | 0.00 | 96 | 1013.2 |
| 20260902094802 | 79 | 206 | 1.0 | 2.0 | 0.00 | 0.00 | 0.00 | 95 | 1013.1 |
| 20260902093602 | 79 | 271 | 1.0 | 3.0 | 0.00 | 0.00 | 0.00 | 94 | 1012.9 |
| 20260902092402 | 80 | 226 | 3.0 | 5.0 | 0.00 | 0.00 | 0.00 | 94 | 1012.9 |
| 20260902091204 | 80 | 232 | 1.0 | 3.0 | 0.00 | 0.00 | 0.00 | 93 | 1012.9 |
| 20260902090002 | 81 | 237 | 1.0 | 2.0 | 0.00 | 0.00 | 0.00 | 92 | 1012.7 |
| 20260902084801 | 81 | 246 | 3.0 | 5.0 | 0.00 | 0.00 | 0.00 | 93 | 1012.8 |
| 20260902083602 | 82 | 251 | 3.0 | 5.0 | 0.00 | 0.00 | 0.00 | 91 | 1012.8 |
| 20260902082403 | 82 | 315 | 2.0 | 3.0 | 0.00 | 0.00 | 0.00 | 90 | 1012.7 |
| 20260902081203 | 83 | 264 | 2.0 | 3.0 | 0.00 | 0.00 | 0.00 | 87 | 1012.7 |
| 20260902080003 | 84 | 282 | 2.0 | 3.0 | 0.00 | 0.00 | 0.00 | 87 | 1012.8 |
| 20260902074802 | 84 | 309 | 1.0 | 2.0 | 0.00 | 0.00 | 0.00 | 84 | 1012.5 |
| 20260902073603 | 85 | 337 | 0.0 | 1.0 | 0.00 | 0.00 | 0.00 | 82 | 1012.4 |
| 20260902072403 | 84 | 328 | 0.0 | 1.0 | 0.00 | 0.00 | 0.00 | 83 | 1012.5 |
| 20260902071202 | 86 | 26 | 1.0 | 3.0 | 0.00 | 0.00 | 0.00 | 81 | 1012.4 |
| 20260902070004 | 85 | 347 | 1.0 | 2.0 | 0.00 | 0.00 | 0.00 | 80 | 1012.4 |
| 20260902064803 | 85 | 3 | 2.0 | 3.0 | 0.00 | 0.00 | 0.00 | 80 | 1012.2 |
| 20260902063603 | 86 | 348 | 2.0 | 5.0 | 0.00 | 0.00 | 0.00 | 77 | 1012.3 |
| 20260902062403 | 88 | 18 | 1.0 | 2.0 | 0.00 | 0.00 | 0.00 | 75 | 1012.3 |
| 20260902061202 | 86 | 15 | 2.0 | 5.0 | 0.00 | 0.00 | 0.00 | 76 | 1012.3 |
| 20260902060002 | 87 | 342 | 3.0 | 6.0 | 0.00 | 0.00 | 0.00 | 75 | 1012.2 |
| 20260902054803 | 88 | 10 | 5.0 | 8.0 | 0.00 | 0.00 | 0.00 | 73 | 1012.5 |
| 20260902053602 | 88 | 348 | 2.0 | 6.0 | 0.00 | 0.00 | 0.00 | 71 | 1012.1 |
| 20260902052402 | 89 | 61 | 2.0 | 3.0 | 0.00 | 0.00 | 0.00 | 70 | 1012.5 |
| 20260902051202 | 89 | 19 | 5.0 | 7.0 | 0.00 | 0.00 | 0.00 | 70 | 1012.8 |
| 20260902050002 | 88 | 340 | 5.0 | 6.0 | 0.00 | 0.00 | 0.00 | 71 | 1012.6 |
| 20260902044803 | 89 | 32 | 1.0 | 2.0 | 0.00 | 0.00 | 0.00 | 69 | 1013.1 |
| 20260902043603 | 88 | 345 | 2.0 | 3.0 | 0.00 | 0.00 | 0.00 | 70 | 1013.2 |